Retour au catalogue

STARLINK-34645

ActifCommunicationsVLEO
NORAD 64766·PAYLOAD·🇺🇸 United States

Lancé Jul 8, 2025 depuis Cape Canaveral Space Force Station

Loading…

Prochains Passages (prochaines 24 heures)

TLE

FraisSource: CelesTrak SupGP

Époque: Sep 14, 2026, 22:48 UTC

1 64766C 25147M   26257.95048611  .00040260  00000+0  11898-2 0  2571
2 64766  53.1593  83.3226 0001293  86.8684 255.6546 15.34362165    16

Suivez STARLINK-34645 en temps réel avec AllMySat

Download on the App Store